[[{"header":{"parameterUnit":"m.s-1","parameterCategory":1,"la1":30.2991,"la2":30.254,"lo1":-89.0895,"lo2":-89.0444,"dy":0.0017,"dx":0.0017,"nx":28,"ny":28,"refTime":"2024-12-16T03:00:00:Z","depth":0,"parameterNumber":2,"parameterNumberName":"U-component_of_WINDS"},"data":[0,0,0,0,0,0,0,0,0,0,0,0,0,0,0,0,0,0,0,0,0,0,0,0,0,0,0,0,0,0,0,0,0,0,0,0,0,0,0,0,0,0,0,0,0,0,0,0,0,0,0,0,0,0,0,0,0,0,-2.2528,-2.2528,0,-2.2535,-2.2535,-2.2535,-2.2472,-2.247,-2.2468,-2.2467,-2.2474,-2.2476,-2.2478,0,0,0,0,0,0,0,0,0,0,0,0,0,-2.2461,-2.2462,-2.2528,-2.2528,-2.2528,-2.2535,-2.2535,-2.2535,-2.2472,-2.247,-2.2468,-2.2466,-2.2474,-2.2476,-2.2478,0,0,0,0,0,0,0,0,0,0,0,0,0,-2.2481,-2.2463,-2.2528,-2.2497,-2.2495,-2.2535,-2.2535,-2.2535,-2.2473,-2.247,-2.2467,-2.2465,-2.2473,-2.2475,-2.2478,-2.2547,0,0,-2.2487,-2.2488,0,0,0,0,0,0,0,0,-2.248,-2.2483,-2.2502,-2.25,-2.2497,-2.25,-2.2514,-2.2539,-2.2473,-2.2481,-2.2467,-2.2464,-2.2485,-2.2486,-2.2493,-2.2548,-2.2548,-2.2487,-2.2488,-2.249,-2.249,0,0,0,0,0,0,0,-2.2478,-2.2483,-2.253,-2.2502,-2.2499,-2.2484,-2.2484,-2.2518,-2.2497,-2.248,-2.2476,-2.2477,-2.2483,-2.2491,-2.2493,-2.2548,-2.2487,-2.2489,-2.2491,-2.2492,-2.266,-2.2663,0,0,0,0,0,0,-2.2481,-2.2482,-2.253,-2.2531,-2.2482,-2.2487,-2.2487,-2.2501,-2.2497,-2.2494,-2.2479,-2.2474,-2.2488,-2.249,-2.2493,-2.2575,-2.249,-2.2492,-2.2494,-2.2658,-2.2661,-2.2664,0,0,0,0,0,0,-2.248,-2.2486,-2.253,-2.2505,-2.2509,-2.2491,-2.2508,-2.2503,-2.2511,-2.2496,-2.2492,-2.2492,-2.2486,-2.2489,-2.2535,-2.2574,-2.2493,-2.2496,-2.2654,-2.2659,-2.2663,-2.2738,0,0,0,0,0,0,-2.2478,-2.2486,-2.2512,-2.2506,-2.2511,-2.2571,-2.251,-2.2505,-2.2516,-2.2509,-2.2507,-2.2504,-2.2484,-2.2531,-2.2537,-2.2576,-2.2498,-2.2651,-2.2656,-2.2661,-2.2732,-2.2744,-2.2755,0,0,0,0,0,-2.2476,-2.2533,-2.2514,-2.252,-2.2543,-2.2574,-2.2576,-2.2552,-2.2519,-2.2545,-2.2536,-2.2504,-2.2568,-2.2536,-2.2543,-2.2583,-2.2648,-2.2655,-2.2661,-2.2727,-2.2742,-2.2755,0,0,0,0,0,0,-2.2544,-2.2531,-2.251,-2.2566,-2.2572,-2.2563,-2.2595,-2.2569,-2.2584,-2.2577,-2.2546,-2.2546,-2.2597,-2.2594,-2.2558,-2.265,-2.2602,-2.2611,-2.265,-2.2665,-2.2676,-2.2676,-2.25,0,0,0,0,0,-2.2565,-2.2591,-2.2579,-2.263,-2.2633,-2.2614,-2.2626,-2.2607,-2.2611,-2.2613,-2.2607,-2.2613,-2.2634,-2.2649,-2.2668,-2.2731,-2.273,-2.2762,-2.2774,-2.2783,-2.2791,-2.2825,-2.2839,-2.2685,-2.2685,-2.2685,0,0,-2.261,-2.2606,-2.2624,-2.2643,-2.2645,-2.2673,-2.2616,-2.2648,-2.2668,-2.2618,-2.2661,-2.2657,-2.266,-2.2715,-2.2739,-2.2715,-2.2833,-2.2791,-2.2799,-2.2801,-2.2833,-2.2848,-2.2861,-2.2689,-2.2689,-2.2688,0,0,-2.2705,-2.2705,-2.2748,-2.2751,-2.2754,-2.2741,-2.2752,-2.2747,-2.2743,-2.2785,-2.2748,-2.2772,-2.2809,-2.2814,-2.2821,-2.2919,-2.2891,-2.2926,-2.2987,-2.302,-2.3032,-2.3043,-2.3079,-2.3092,-2.2934,-2.2934,-2.2934,0,-2.2761,-2.2801,-2.2773,-2.2808,-2.2817,-2.2773,-2.2817,-2.2821,-2.2831,-2.2839,-2.2811,-2.2858,-2.2857,-2.2913,-2.2937,-2.2944,-2.2955,-2.2927,-2.3033,-2.3043,-2.3053,-2.3087,-2.31,-2.2938,-2.2938,-2.2937,-2.2937,0,-2.2869,-2.2898,-2.2932,-2.2942,-2.2956,-2.2995,-2.2973,-2.299,-2.297,-2.296,-2.3004,-2.3002,-2.302,-2.3031,-2.3012,-2.3085,-2.307,-2.3038,-2.299,-2.3072,-2.3104,-2.3117,-2.2944,-2.2943,-2.2942,-2.294,0,0,-2.3008,-2.3003,-2.3016,-2.3021,-2.3022,-2.3043,-2.308,-2.3098,-2.3114,-2.3121,-2.3152,-2.3185,-2.3156,-2.3164,-2.3145,-2.3174,-2.3254,-2.3139,-2.3139,-2.3161,-2.3335,-2.336,-2.3375,-2.3234,-2.3236,-2.3238,-2.3335,0,-2.3102,-2.3165,-2.3142,-2.3207,-2.3233,-2.3192,-2.3224,-2.3228,-2.322,-2.3241,-2.3231,-2.3256,-2.3215,-2.322,-2.3247,-2.3238,-2.3288,-2.3231,-2.3263,-2.3265,-2.3265,-2.3391,-2.3418,-2.3509,-2.3347,-2.3349,-2.3351,0,-2.3221,-2.3234,-2.3302,-2.3298,-2.3309,-2.3338,-2.3353,-2.3374,-2.3378,-2.3369,-2.3379,-2.3353,-2.339,-2.3341,-2.3391,-2.3352,-2.3364,-2.3362,-2.3365,-2.3368,-2.3314,-2.3399,-2.3537,-2.3552,-2.337,-2.3368,-2.3367,0,-2.3317,-2.3351,-2.3397,-2.3402,-2.3399,-2.3421,-2.342,-2.3422,-2.3434,-2.3447,-2.3455,-2.3472,-2.3482,-2.3495,-2.3475,-2.3441,-2.3529,-2.3478,-2.3524,-2.3524,-2.3545,-2.3544,-2.3688,-2.3551,-2.355,-2.355,-2.355,0,-2.3425,-2.3468,-2.344,-2.3468,-2.3515,-2.3488,-2.3536,-2.3531,-2.3532,-2.3559,-2.3524,-2.3549,-2.352,-2.3544,-2.3528,-2.3572,-2.3576,-2.3571,-2.3567,-2.3575,-2.3576,-2.3583,-2.3577,-2.3554,-2.3553,-2.3552,-2.3552,0,-2.3541,-2.3523,-2.357,-2.3564,-2.3563,-2.3598,-2.3593,-2.3619,-2.3608,-2.3642,-2.3648,-2.3631,-2.3657,-2.3637,-2.3662,-2.3652,-2.3711,-2.3697,-2.371,-2.3706,-2.3754,-2.375,-2.3909,-2.3929,-2.3777,-2.3779,-2.378,0,-2.3612,-2.3644,-2.3641,-2.3657,-2.3659,-2.3684,-2.3696,-2.3671,-2.3685,-2.3693,-2.3718,-2.374,-2.3757,-2.38,-2.379,-2.3809,-2.3795,-2.385,-2.3798,-2.3806,-2.3798,-2.3797,-2.38,-2.3861,-2.3862,-2.3864,-2.3865,0,-2.374,-2.3729,-2.3749,-2.3766,-2.3783,-2.3795,-2.3804,-2.3818,-2.3792,-2.3811,-2.3836,-2.3849,-2.3875,-2.3898,-2.3914,-2.3913,-2.3886,-2.3881,-2.3893,-2.3902,-2.3909,-2.3907,-2.374,-2.3878,-2.3877,-2.3876,-2.3875,-2.3874,-2.3836,-2.3863,-2.3866,-2.3889,-2.3893,-2.3903,-2.3927,-2.3919,-2.394,-2.3959,-2.3943,-2.3974,-2.3978,-2.3996,-2.3999,-2.4023,-2.4001,-2.4018,-2.4022,-2.4027,-2.4034,-2.3905,-2.4026,-2.4025,-2.4025,-2.4025,-2.4024,0,-2.3963,-2.3963,-2.3984,-2.3999,-2.4017,-2.3989,-2.3998,-2.4015,-2.4043,-2.4049,-2.4066,-2.4096,-2.4118,-2.411,-2.413,-2.4151,-2.4139,-2.4157,-2.4156,-2.4157,-2.4053,-2.4041,-2.4167,-2.4167,-2.4167,-2.4167,-2.4167,-2.4167,-2.4031,-2.4076,-2.4067,-2.4114,-2.4113,-2.4143,-2.4151,-2.416,-2.4164,-2.42,-2.4218,-2.4213,-2.4213,-2.4232,-2.4252,-2.4249,-2.4258,-2.4282,-2.4274,-2.4178,-2.4164,-2.415,-2.4139,-2.4284,-2.4284,-2.4376,-2.4377,-2.4378]},{"header":{"parameterUnit":"m.s-1","parameterCategory":1,"la1":30.2991,"la2":30.254,"lo1":-89.0895,"lo2":-89.0444,"dy":0.0017,"dx":0.0017,"nx":28,"ny":28,"refTime":"2024-12-16T03:00:00:Z","depth":0,"parameterNumber":3,"parameterNumberName":"V-component_of_WINDS"},"data":[0,0,0,0,0,0,0,0,0,0,0,0,0,0,0,0,0,0,0,0,0,0,0,0,0,0,0,0,0,0,0,0,0,0,0,0,0,0,0,0,0,0,0,0,0,0,0,0,0,0,0,0,0,0,0,0,0,0,-0.118,-0.1181,0,-0.1244,-0.1244,-0.1245,-0.1224,-0.1222,-0.1221,-0.122,-0.1289,-0.1292,-0.1295,0,0,0,0,0,0,0,0,0,0,0,0,0,-0.1043,-0.1046,-0.118,-0.1181,-0.1182,-0.1243,-0.1244,-0.1245,-0.1224,-0.1222,-0.1221,-0.1219,-0.1288,-0.1291,-0.1295,0,0,0,0,0,0,0,0,0,0,0,0,0,-0.1105,-0.1047,-0.118,-0.1178,-0.1179,-0.1243,-0.1244,-0.1245,-0.1224,-0.1222,-0.122,-0.1218,-0.1287,-0.1291,-0.1296,-0.1367,0,0,-0.131,-0.1312,0,0,0,0,0,0,0,0,-0.1101,-0.111,-0.1178,-0.1179,-0.1179,-0.1224,-0.1221,-0.1286,-0.1225,-0.1207,-0.122,-0.1217,-0.1269,-0.1275,-0.1292,-0.137,-0.1373,-0.1311,-0.1313,-0.1315,-0.1317,0,0,0,0,0,0,0,-0.1097,-0.1107,-0.1205,-0.1179,-0.118,-0.1176,-0.1182,-0.1234,-0.1249,-0.1209,-0.1207,-0.1215,-0.1269,-0.1287,-0.1293,-0.1374,-0.131,-0.1315,-0.1318,-0.1319,-0.1514,-0.1516,0,0,0,0,0,0,-0.1092,-0.1103,-0.1203,-0.1207,-0.1134,-0.118,-0.1187,-0.1212,-0.1249,-0.1252,-0.1217,-0.1214,-0.128,-0.1288,-0.1296,-0.1382,-0.1315,-0.132,-0.1323,-0.1512,-0.1515,-0.1517,0,0,0,0,0,0,-0.1089,-0.1101,-0.1201,-0.1155,-0.1167,-0.1184,-0.1212,-0.1214,-0.1232,-0.1255,-0.1258,-0.1232,-0.1279,-0.1289,-0.1349,-0.1384,-0.1322,-0.1326,-0.1509,-0.1513,-0.1516,-0.1555,0,0,0,0,0,0,-0.1085,-0.11,-0.1126,-0.1156,-0.117,-0.1252,-0.1214,-0.1217,-0.124,-0.1236,-0.127,-0.1273,-0.1278,-0.1342,-0.1354,-0.1389,-0.133,-0.1506,-0.1511,-0.1515,-0.155,-0.1559,-0.1566,0,0,0,0,0,-0.108,-0.1136,-0.1128,-0.114,-0.1203,-0.1254,-0.1263,-0.1266,-0.1243,-0.127,-0.1284,-0.1272,-0.1378,-0.1348,-0.1361,-0.1399,-0.1504,-0.1509,-0.1514,-0.1547,-0.1557,-0.1566,0,0,0,0,0,0,-0.1112,-0.1139,-0.1131,-0.1197,-0.1223,-0.1251,-0.1285,-0.1277,-0.1311,-0.1307,-0.131,-0.1318,-0.138,-0.1395,-0.1362,-0.147,-0.1438,-0.1446,-0.1458,-0.1468,-0.1476,-0.1472,-0.1334,0,0,0,0,0,-0.1126,-0.1164,-0.1187,-0.1243,-0.1256,-0.1268,-0.1291,-0.1291,-0.1318,-0.133,-0.1349,-0.1377,-0.1417,-0.1443,-0.148,-0.1551,-0.1559,-0.1584,-0.1592,-0.1598,-0.1606,-0.1646,-0.1658,-0.1534,-0.1534,-0.1534,0,0,-0.1157,-0.1176,-0.1201,-0.125,-0.127,-0.1311,-0.1278,-0.1322,-0.1353,-0.1337,-0.1395,-0.141,-0.1442,-0.1508,-0.1538,-0.1523,-0.1641,-0.1605,-0.161,-0.1614,-0.1653,-0.1664,-0.1675,-0.1538,-0.1537,-0.1537,0,0,-0.1234,-0.1252,-0.1301,-0.1321,-0.1352,-0.1359,-0.1371,-0.1399,-0.1408,-0.1466,-0.1455,-0.1491,-0.1559,-0.1583,-0.1603,-0.1688,-0.1679,-0.17,-0.1743,-0.1782,-0.1792,-0.1801,-0.1832,-0.1844,-0.1707,-0.1707,-0.1707,0,-0.1268,-0.1328,-0.1328,-0.1373,-0.1395,-0.138,-0.1431,-0.1451,-0.1493,-0.151,-0.1491,-0.1576,-0.1596,-0.1668,-0.1689,-0.1705,-0.172,-0.1697,-0.179,-0.1799,-0.1807,-0.1838,-0.1849,-0.171,-0.1709,-0.1709,-0.1709,0,-0.137,-0.1412,-0.1448,-0.1487,-0.1513,-0.1561,-0.1569,-0.1596,-0.1593,-0.1602,-0.1662,-0.1685,-0.1728,-0.1744,-0.1742,-0.1816,-0.1806,-0.1789,-0.1757,-0.1821,-0.185,-0.1862,-0.1713,-0.1712,-0.1712,-0.1711,0,0,-0.1471,-0.1508,-0.1521,-0.1539,-0.1571,-0.1604,-0.1651,-0.1691,-0.1715,-0.1743,-0.1784,-0.1841,-0.1825,-0.1849,-0.1849,-0.1883,-0.1951,-0.1862,-0.1863,-0.1879,-0.2035,-0.205,-0.2063,-0.1944,-0.1946,-0.1947,-0.2033,0,-0.1552,-0.1634,-0.1634,-0.171,-0.1749,-0.1735,-0.1776,-0.1801,-0.1811,-0.1847,-0.1858,-0.1899,-0.1874,-0.1888,-0.1921,-0.1935,-0.1982,-0.1929,-0.1984,-0.1986,-0.1978,-0.2078,-0.2093,-0.2173,-0.2044,-0.2046,-0.2048,0,-0.1658,-0.1689,-0.1768,-0.1795,-0.1811,-0.1848,-0.1885,-0.1918,-0.1946,-0.1951,-0.1977,-0.1972,-0.2021,-0.1986,-0.2055,-0.2019,-0.2041,-0.2051,-0.2054,-0.2062,-0.2022,-0.209,-0.2199,-0.2212,-0.2065,-0.2064,-0.2062,0,-0.1725,-0.1787,-0.1843,-0.1858,-0.189,-0.1916,-0.1931,-0.1956,-0.198,-0.2013,-0.2029,-0.2066,-0.2088,-0.2118,-0.2124,-0.2097,-0.2194,-0.2159,-0.2201,-0.2201,-0.2224,-0.2223,-0.234,-0.2235,-0.2234,-0.2234,-0.2234,0,-0.1817,-0.1867,-0.1873,-0.1908,-0.1964,-0.1964,-0.2019,-0.2031,-0.2054,-0.2092,-0.2082,-0.2118,-0.2122,-0.2159,-0.2164,-0.2222,-0.2231,-0.2238,-0.2239,-0.224,-0.224,-0.2257,-0.2252,-0.2237,-0.2237,-0.2236,-0.2235,0,-0.1903,-0.1909,-0.1969,-0.1994,-0.2001,-0.2041,-0.2062,-0.2096,-0.2104,-0.2152,-0.2163,-0.2177,-0.222,-0.2228,-0.228,-0.2283,-0.2352,-0.2347,-0.2343,-0.2343,-0.2386,-0.2383,-0.252,-0.2539,-0.2419,-0.242,-0.2421,0,-0.1962,-0.2,-0.2028,-0.2052,-0.2068,-0.2106,-0.213,-0.2131,-0.2157,-0.2191,-0.2221,-0.2263,-0.2297,-0.2367,-0.2383,-0.2422,-0.2419,-0.2464,-0.2425,-0.2426,-0.2423,-0.2421,-0.2426,-0.2473,-0.2474,-0.2475,-0.2476,0,-0.2068,-0.2068,-0.2103,-0.2139,-0.2167,-0.2196,-0.2223,-0.2243,-0.2248,-0.2278,-0.2321,-0.2347,-0.2399,-0.2442,-0.2481,-0.2497,-0.2489,-0.2488,-0.25,-0.2503,-0.25,-0.2504,-0.2366,-0.2485,-0.2485,-0.2484,-0.2483,-0.2483,-0.2144,-0.2177,-0.2202,-0.2241,-0.226,-0.2286,-0.2319,-0.233,-0.2366,-0.2408,-0.2406,-0.2455,-0.2482,-0.2533,-0.2552,-0.2591,-0.2577,-0.2594,-0.2599,-0.2604,-0.2609,-0.2492,-0.2598,-0.2597,-0.2597,-0.2597,-0.2597,0,-0.225,-0.2265,-0.23,-0.2338,-0.2369,-0.2355,-0.2384,-0.2411,-0.2453,-0.2479,-0.2512,-0.2562,-0.2603,-0.2621,-0.2662,-0.2689,-0.2687,-0.27,-0.27,-0.2704,-0.2618,-0.2604,-0.2702,-0.2702,-0.2702,-0.2702,-0.2702,-0.2702,-0.2309,-0.2365,-0.2369,-0.2435,-0.2449,-0.2496,-0.2514,-0.2537,-0.2557,-0.2614,-0.2647,-0.2658,-0.2681,-0.2723,-0.276,-0.2765,-0.2781,-0.2798,-0.28,-0.272,-0.271,-0.27,-0.2687,-0.2801,-0.2801,-0.2883,-0.2884,-0.2885]}]]